{"data":{"norad_id":43023,"epoch":"2026-09-20T04:40:10.129152Z","epoch_age_seconds":78613,"freshness":"FRESH","line1":"1 43023U 17074B   26263.19456168  .00006339  00000+0  18800-3 0  9990","line2":"2 43023  97.4906  10.7486 0003684 245.2990 114.7869 15.35185859488575","mean_motion":15.35185859,"eccentricity":0.0003684,"inclination_deg":97.4906,"raan_deg":10.7486,"arg_perigee_deg":245.299,"mean_anomaly_deg":114.7869,"bstar":0.000188,"rev_number":48857,"period_min":93.799717575434,"perigee_km":457.84919266181,"apogee_km":462.8878035128,"semimajor_km":6838.5054980873,"source":"CELESTRAK","updated_at":"2026-09-20T09:00:14.265647Z"}}